Tracking 19709 objects as of 17-Jun-2019
HD Live streaming from Space Station
objects crossing your sky now

OPS 7034 (TRANSIT 18)

Track OPS 7034 (TRANSIT 18) now!
10-day predictions
OPS 7034 (TRANSIT 18) is classified as:


NORAD ID: 3133
Int'l Code: 1968-012A
Perigee: 1,019.3 km
Apogee: 1,131.9 km
Inclination: 90.0 °
Period: 106.6 minutes
Semi major axis: 7446 km
RCS: 1.3738 m2 (large)
Launch date: March 2, 1968
Source: United States (US)
Launch site: AIR FORCE WESTERN TEST RANGE (AFWTR)
aabbcc
Your satellite tracking list
Your tracking list is empty




NASA's NSSDC Master Catalog

Two Line Element Set (TLE):
1  3133U 68012A   19168.18626087  .00000046  00000-0  55081-4 0  9993
2  3133  89.9785 272.8025 0075609 194.0611 230.4132 13.51045131525576
Source of the keplerian elements: AFSPC